Location: Perryvale
(54.4667°N, 113.3833°W)
Time: 15:07:53
(UTC+00:00)

Tiros 1 - All Passes

Search period start: 19 May 2024 00:00
Search period end: 29 May 2024 00:00
Orbit: 624 x 657 km, 48.4° (Epoch: 18 May)

Date Brightness Start Highest point End Pass type
(mag) Time Alt. Az. Time Alt. Az. Time Alt. Az.
19 May - 01:11:21 10° W 01:15:28 29° SSW 01:19:34 10° SE daylight
19 May - 02:54:43 10° WSW 02:56:28 12° SW 02:58:13 10° SSW daylight
19 May - 20:31:35 10° SSW 20:34:59 20° SSE 20:38:25 10° ESE daylight
19 May - 22:11:52 10° SW 22:16:15 37° S 22:20:39 10° ESE daylight
19 May - 23:53:22 10° WSW 23:57:46 38° S 00:02:10 10° ESE daylight
20 May - 01:35:31 10° WSW 01:39:04 21° SSW 01:42:36 10° SSE daylight
20 May - 19:16:24 10° SSE 19:17:37 11° SE 19:18:50 10° SE daylight
20 May - 20:54:31 10° SW 20:58:34 28° SSE 21:02:39 10° E daylight
20 May - 22:35:32 10° WSW 22:40:01 41° S 22:44:29 10° ESE daylight
21 May - 00:17:17 10° W 00:21:29 31° SSW 00:25:39 10° SE daylight
21 May - 02:00:18 10° WSW 02:02:32 13° SW 02:04:47 10° S daylight
21 May - 19:37:48 10° S 19:41:02 18° SSE 19:44:16 10° ESE daylight
21 May - 21:17:53 10° SW 21:22:15 36° SSE 21:26:36 10° ESE daylight
21 May - 22:59:20 10° WSW 23:03:46 39° S 23:08:11 10° ESE daylight
22 May - 00:41:24 10° WSW 00:45:06 23° SSW 00:48:47 10° SSE daylight
22 May - 20:00:36 10° SSW 20:04:35 26° SSE 20:08:33 10° E daylight
22 May - 21:41:31 10° WSW 21:45:59 40° S 21:50:27 10° ESE daylight
22 May - 23:23:13 10° W 23:27:28 33° SSW 23:31:43 10° SE daylight
23 May - 01:05:57 10° WSW 01:08:35 15° SW 01:11:12 10° S daylight
23 May - 18:44:03 10° S 18:47:04 17° SE 18:50:04 10° ESE daylight
23 May - 20:23:55 10° SW 20:28:14 34° SSE 20:32:33 10° E daylight
23 May - 22:05:17 10° WSW 22:09:44 40° S 22:14:11 10° ESE daylight
23 May - 23:47:16 10° W 23:51:06 24° SSW 23:54:55 10° SSE daylight
24 May - 19:06:42 10° SSW 19:10:34 25° SSE 19:14:26 10° E daylight
24 May - 20:47:29 10° WSW 20:51:56 40° S 20:56:24 10° ESE daylight
24 May - 22:29:08 10° W 22:33:27 34° SSW 22:37:45 10° SE daylight
25 May - 00:11:40 10° WSW 00:14:36 16° SW 00:17:32 10° S daylight
25 May - 17:50:21 10° S 17:53:04 15° SE 17:55:47 10° ESE daylight
25 May - 19:29:55 10° SW 19:34:11 33° SSE 19:38:27 10° E daylight
25 May - 21:11:13 10° WSW 21:15:41 40° S 21:20:09 10° ESE daylight
25 May - 22:53:08 10° W 22:57:05 26° SSW 23:01:01 10° SSE daylight
26 May - 18:12:48 10° SSW 18:16:32 23° SSE 18:20:17 10° ESE daylight
26 May - 19:53:26 10° WSW 19:57:52 39° S 20:02:19 10° ESE daylight
26 May - 21:35:03 10° WSW 21:39:23 35° SSW 21:43:44 10° SE daylight
26 May - 23:17:25 10° WSW 23:20:36 18° SSW 23:23:46 10° S daylight
27 May - 16:56:42 10° S 16:59:03 14° SE 17:01:26 10° ESE daylight
27 May - 18:35:56 10° SW 18:40:07 31° SSE 18:44:20 10° E daylight
27 May - 20:17:08 10° WSW 20:21:36 40° S 20:26:04 10° ESE daylight
27 May - 21:58:59 10° W 22:03:02 28° SSW 22:07:04 10° SE daylight
27 May - 23:43:02 10° SW 23:43:58 11° SW 23:44:54 10° SSW daylight
28 May - 17:18:54 10° SSW 17:22:29 21° SSE 17:26:06 10° ESE daylight
28 May - 18:59:23 10° WSW 19:03:47 38° S 19:08:13 10° ESE daylight
28 May - 20:40:56 10° WSW 20:45:19 37° SSW 20:49:41 10° SE daylight
28 May - 22:23:11 10° WSW 22:26:34 19° SSW 22:29:56 10° SSE daylight
